Voltar ao catálogo

COSMOS 2477

GLONASS

AtivoNavegaçãoMEO
NORAD 37868·PAYLOAD·🇷🇺 Russia

Lançado Nov 4, 2011 de Baikonur Cosmodrome

Loading…

Próximas Passagens (próximas 24 horas)

TLE

AtualizadoSource: CelesTrak SupGP

Época: Sep 13, 2026, 23:59 UTC

1 37868C 11064B   26256.99979167  .00000000  00000+0  00000+0 0  2566
2 37868  65.3320  69.9557 0019697 230.5523 208.4784  2.13102984    10

Acompanhe COSMOS 2477 em tempo real com AllMySat

Download on the App Store